Wind_Speed
19 17 28 32 30 31 33 35 37 36 41 47 50 49 59 61 59 52 59 58 56 53 51 49 45 42 41 41 49 56 68 86 92 97 108 113 117 117 114 108 106 100 96 91
25 34 32 30 30 30 32 34 39 41 46 49 54 56 63 65 63 63 67 66 61 58 52 46 46 41 36 38 41 50 56 71 91 96 105 111 117 118 120 114 112 105 97 99
29 27 28 30 30 33 38 40 42 44 48 51 54 58 65 70 70 62 67 69 71 70 64 54 45 41 31 28 33 39 50 61 79 98 101 112 115 121 122 121 116 113 106 102
26 25 27 31 36 41 43 45 43 46 48 49 56 61 66 72 70 63 68 74 77 76 73 61 50 40 35 24 24 29 41 54 69 88 100 110 116 121 125 125 120 117 112 102
26 28 31 34 38 42 45 46 45 46 48 49 54 60 65 74 75 74 79 83 82 77 74 70 56 45 34 23 18 22 32 46 61 77 91 105 116 119 127 127 125 119 118 106
24 28 32 37 39 40 44 47 48 46 47 51 55 60 67 74 75 78 81 85 80 84 82 75 63 51 38 25 17 16 24 36 53 69 83 97 113 119 125 130 129 122 118 116
25 27 30 36 40 40 41 45 47 47 49 53 55 60 66 71 73 77 80 85 83 89 90 78 71 55 44 28 17 13 17 27 44 59 73 90 105 118 123 130 130 126 121 119
24 26 29 33 38 42 44 45 49 49 50 52 55 60 65 69 73 76 80 83 85 87 86 85 73 62 51 38 23 12 10 19 35 50 66 82 97 111 119 127 128 130 125 120
24 28 31 33 37 40 42 44 46 47 48 49 55 58 62 68 71 75 79 81 85 86 91 92 79 71 58 46 34 20 8 10 26 39 56 74 93 102 114 124 125 129 127 124
25 28 31 34 36 41 43 43 43 45 46 49 53 57 64 69 71 75 76 78 84 87 90 92 88 76 67 52 41 28 15 3 15 30 46 63 79 103 110 120 124 125 128 125
26 28 31 34 37 38 43 44 45 46 47 46 51 57 62 66 68 71 74 77 82 87 91 92 90 87 73 61 48 35 24 12 3 19 35 51 67 87 107 118 123 121 125 125
30 31 33 35 38 40 42 44 43 43 44 47 50 54 59 63 66 68 70 76 79 84 88 92 92 91 84 70 57 45 33 23 9 7 23 40 55 73 97 111 121 121 120 123
34 33 33 34 37 40 42 42 42 42 43 46 48 51 56 59 60 65 69 72 76 81 86 88 90 91 92 86 70 57 45 32 20 6 10 26 41 60 85 104 116 121 119 118
36 36 36 34 36 38 39 39 39 38 39 43 46 50 53 57 59 62 67 68 73 80 84 85 88 90 90 90 86 67 55 42 30 18 5 10 26 45 67 94 109 118 120 117
36 39 40 36 36 37 36 35 35 34 36 40 42 44 48 52 54 61 64 67 71 76 79 81 85 88 90 88 89 84 65 52 39 28 16 4 14 30 51 81 98 112 118 118
30 31 34 34 31 30 31 31 31 31 33 37 39 41 43 47 51 55 59 61 69 70 75 80 82 83 83 86 86 85 84 68 52 36 25 13 5 18 36 58 89 100 112 117
25 28 30 30 27 25 28 28 27 28 31 35 36 39 40 44 50 51 58 58 63 68 72 77 80 84 82 83 86 87 81 76 69 50 34 22 11 7 21 42 66 90 100 112
24 26 25 26 25 25 27 25 22 24 30 32 34 37 38 45 49 51 52 56 59 63 69 75 76 80 83 82 84 84 83 76 73 71 49 33 19 9 10 25 45 70 91 100
24 25 24 24 26 23 20 19 21 24 29 31 34 36 37 42 44 51 52 57 61 61 66 73 70 75 79 83 84 83 82 82 75 69 65 52 31 18 6 11 30 49 73 94
21 22 22 19 19 22 19 19 21 25 29 31 35 35 36 42 43 49 52 55 64 67 71 73 68 71 80 79 83 85 82 81 78 74 65 58 52 33 17 4 12 31 53 76
18 21 18 16 21 21 21 21 23 27 30 32 35 35 37 41 46 49 52 59 61 67 69 71 68 70 77 79 83 83 82 85 80 74 69 62 53 49 35 18 5 13 32 56
22 23 23 22 24 27 27 29 30 33 35 37 35 36 39 44 49 51 51 57 61 64 68 67 68 72 75 77 81 78 81 85 80 73 73 65 62 52 41 34 20 7 13 30
21 21 23 23 25 27 30 32 34 35 36 37 37 37 42 46 49 53 55 59 63 60 63 67 71 74 77 78 79 78 81 84 78 74 76 73 65 57 47 38 28 19 10 15
24 25 23 22 22 24 29 31 31 33 36 37 37 40 43 45 48 52 55 59 58 64 68 70 73 74 75 77 79 80 80 78 77 78 80 76 71 67 58 53 40 25 18 13
26 27 27 28 28 29 31 33 34 36 37 40 42 44 46 46 46 55 59 61 64 68 68 69 71 73 75 75 79 79 79 78 80 79 78 78 77 73 71 63 50 41 26 14
23 25 31 35 36 36 37 35 38 41 40 42 45 46 46 48 51 57 58 61 64 65 66 68 70 72 73 74 76 80 80 80 80 81 81 79 80 77 76 70 65 58 42 30
Wind_Direction
56 49 42 32 21 13 10 11 11 10 12 15 17 15 16 14 15 13 12 7 358 350 342 326 313 302 285 262 250 242 229 222 220 218 215 214 213 210 209 210 210 212 214 219
43 37 34 33 25 16 12 12 14 11 13 12 12 15 14 12 14 16 13 11 7 360 349 338 322 312 294 273 255 243 232 223 219 216 215 212 211 210 209 209 208 209 211 216
40 35 29 24 21 18 16 15 15 13 11 10 9 9 10 12 15 17 18 16 12 10 1 352 336 322 316 285 266 244 233 223 219 216 212 211 209 208 207 209 209 208 209 212
39 35 30 25 20 16 14 15 13 13 7 7 10 10 8 13 13 18 22 18 17 12 6 358 352 337 324 308 277 251 230 222 218 216 211 210 208 206 206 209 209 209 209 210
29 24 24 26 21 15 11 11 12 11 6 6 8 8 8 9 13 14 19 20 20 16 13 6 360 353 335 325 294 258 234 223 217 215 212 209 208 205 204 206 209 210 210 207
22 16 12 13 17 15 9 6 8 8 5 5 8 8 8 9 10 12 14 17 21 23 16 12 6 2 354 339 314 273 241 225 218 214 213 208 207 205 203 204 208 208 210 208
10 10 6 1 3 9 7 5 5 4 5 6 6 6 8 8 12 14 14 16 19 22 20 16 11 6 6 357 345 300 252 230 219 215 213 208 205 205 203 203 208 208 209 212
359 359 356 353 351 356 1 2 1 4 3 4 4 7 8 7 12 12 15 17 19 21 25 21 16 14 10 10 8 352 280 235 222 215 211 208 206 205 204 203 206 208 209 210
350 348 348 349 347 350 356 358 1 4 359 2 4 7 5 10 12 13 13 15 18 22 23 25 21 20 16 14 11 11 350 252 224 215 212 210 206 204 205 204 204 208 208 209
340 339 340 341 343 343 348 353 358 359 358 3 3 6 7 10 12 13 14 14 18 20 21 25 28 23 22 18 17 13 13 327 227 220 212 211 206 203 204 205 203 207 208 208
330 332 333 334 337 337 341 347 353 357 356 3 3 5 8 10 12 13 13 15 16 18 21 24 26 27 25 25 22 20 21 22 235 222 215 210 209 204 205 205 203 205 207 209
320 325 328 328 329 333 338 341 349 355 355 359 4 4 7 10 12 14 13 15 14 15 19 21 25 27 30 27 27 26 28 28 29 219 214 212 210 206 205 206 204 204 207 209
311 315 319 321 323 326 330 335 344 352 353 356 1 5 6 10 11 13 14 14 15 15 19 21 24 26 30 32 29 28 28 32 37 45 210 213 211 208 204 206 207 205 207 209
306 309 311 315 315 317 322 329 340 350 351 353 3 4 6 9 11 13 14 15 17 17 17 21 21 25 27 31 31 31 30 31 35 41 70 198 211 210 205 204 207 207 208 209
300 305 308 311 311 310 317 325 338 347 349 351 3 2 5 8 10 11 13 15 16 17 18 18 21 22 23 27 29 32 33 32 34 38 45 104 194 206 208 206 206 207 208 210
308 310 311 315 315 312 314 323 338 346 346 350 0 359 4 6 9 7 11 13 13 17 18 17 18 20 21 23 26 30 33 33 31 35 39 52 146 196 203 206 208 210 209 211
318 322 323 323 322 318 317 326 341 344 344 350 356 358 1 5 6 5 6 11 11 17 18 18 18 19 20 21 21 24 27 33 33 30 33 41 60 168 199 204 207 211 213 212
322 326 331 327 325 325 324 332 343 345 341 351 350 356 359 3 4 3 3 5 11 15 15 15 17 18 18 19 20 20 21 28 32 32 31 30 39 69 179 201 207 210 212 215
319 320 322 329 334 339 347 344 344 337 344 346 347 352 356 360 1 3 4 8 7 5 7 7 11 12 14 15 17 18 17 18 23 29 31 29 27 32 61 190 206 211 214 214
324 323 337 358 337 346 348 342 337 333 343 343 345 348 352 357 356 358 357 358 359 3 2 3 9 8 8 10 10 11 12 13 14 16 27 32 29 27 26 36 199 213 214 216
342 345 355 342 335 340 335 332 330 333 338 340 342 344 347 353 357 357 358 355 357 358 358 2 3 2 2 2 3 6 7 7 9 11 13 19 27 30 24 17 343 212 215 218
334 340 343 341 342 353 349 345 340 342 342 344 340 338 344 347 348 349 353 351 352 353 354 357 358 358 359 359 0 3 2 2 4 7 8 10 13 21 27 23 11 328 235 219
334 354 353 349 344 346 350 351 347 348 349 348 342 338 340 345 347 348 348 349 349 353 355 355 355 354 354 355 358 358 357 358 0 3 2 1 3 8 10 21 19 6 318 250
328 340 338 337 333 341 342 345 345 346 347 347 345 342 340 342 345 348 345 345 348 349 350 349 350 350 352 351 351 353 356 357 356 354 356 356 356 357 358 3 7 11 353 303
327 334 331 344 342 340 342 341 345 349 347 340 340 337 337 337 336 340 342 341 342 343 345 346 347 347 348 350 349 353 353 353 354 353 353 352 351 350 351 349 351 351 356 334
343 340 339 340 340 341 342 337 336 336 337 335 337 337 336 336 337 338 340 339 340 341 342 343 346 347 348 350 348 347 347 348 347 348 347 348 349 347 347 344 343 342 341 341
Height
10673 10670 10661 10654 10651 10646 10641 10634 10627 10619 10609 10598 10588 10576 10564 10550 10536 10521 10507 10490 10472 10451 10429 10409 10394 10384 10378 10377 10376 10382 10393 10407 10428 10450 10474 10497 10523 10548 10568 10590 10609 10626 10644 10658
10670 10659 10658 10657 10653 10649 10642 10635 10624 10613 10603 10593 10584 10573 10560 10547 10532 10516 10500 10483 10464 10442 10422 10402 10381 10369 10361 10357 10358 10362 10371 10383 10400 10422 10444 10468 10494 10520 10545 10565 10586 10607 10624 10639
10666 10665 10662 10658 10655 10649 10640 10630 10621 10611 10600 10591 10582 10572 10557 10544 10527 10515 10497 10480 10458 10436 10413 10391 10372 10357 10347 10342 10340 10343 10350 10360 10373 10393 10416 10441 10465 10494 10521 10543 10562 10584 10605 10622
10670 10667 10663 10658 10650 10642 10635 10628 10620 10610 10602 10592 10580 10568 10556 10541 10524 10513 10492 10473 10450 10428 10405 10384 10365 10349 10338 10330 10326 10327 10331 10339 10352 10368 10391 10414 10439 10465 10495 10519 10542 10565 10585 10603
10671 10666 10661 10655 10648 10641 10634 10627 10621 10611 10603 10592 10582 10569 10555 10539 10520 10503 10487 10469 10451 10428 10407 10383 10361 10344 10331 10323 10318 10316 10318 10324 10334 10348 10369 10390 10415 10439 10469 10496 10518 10542 10565 10585
10670 10665 10659 10653 10648 10642 10634 10627 10618 10612 10603 10592 10579 10568 10554 10538 10522 10503 10486 10469 10451 10430 10408 10384 10361 10342 10328 10319 10312 10309 10310 10314 10321 10333 10349 10370 10394 10420 10445 10474 10497 10522 10545 10568
10668 10663 10658 10652 10647 10642 10637 10629 10620 10611 10599 10589 10579 10568 10553 10540 10522 10505 10489 10471 10452 10433 10413 10388 10366 10343 10328 10317 10309 10305 10304 10307 10312 10321 10336 10357 10376 10402 10425 10452 10477 10502 10527 10548
10667 10663 10658 10653 10646 10640 10634 10626 10617 10609 10598 10590 10579 10566 10554 10541 10523 10506 10490 10473 10455 10436 10415 10392 10369 10347 10329 10317 10309 10304 10302 10302 10306 10314 10326 10344 10366 10387 10410 10433 10458 10484 10508 10530
10665 10661 10656 10651 10644 10638 10634 10626 10619 10611 10600 10592 10578 10567 10556 10540 10524 10507 10490 10475 10457 10438 10419 10399 10376 10355 10334 10319 10310 10304 10301 10300 10303 10311 10322 10336 10357 10378 10399 10419 10442 10465 10490 10514
10663 10659 10654 10649 10643 10635 10630 10625 10619 10611 10603 10589 10578 10566 10552 10536 10523 10508 10492 10476 10459 10441 10424 10405 10385 10364 10344 10328 10315 10307 10303 10301 10303 10308 10317 10328 10345 10366 10385 10407 10428 10450 10474 10497
10661 10657 10652 10646 10641 10635 10628 10621 10615 10606 10597 10589 10577 10565 10553 10539 10526 10512 10496 10481 10464 10447 10428 10412 10394 10374 10353 10338 10324 10314 10307 10304 10304 10308 10315 10326 10342 10359 10375 10395 10416 10437 10460 10481
10657 10653 10648 10643 10636 10630 10625 10619 10613 10606 10597 10585 10576 10566 10554 10542 10528 10515 10500 10485 10469 10451 10435 10417 10401 10386 10365 10348 10334 10322 10314 10310 10309 10310 10315 10324 10336 10354 10372 10390 10408 10428 10447 10467
10652 10649 10645 10639 10632 10625 10621 10616 10611 10602 10593 10583 10575 10566 10554 10545 10533 10519 10504 10490 10475 10458 10443 10426 10411 10395 10377 10360 10345 10333 10324 10318 10314 10315 10318 10325 10334 10347 10366 10384 10403 10420 10437 10455
10645 10641 10638 10636 10630 10624 10619 10614 10609 10601 10592 10583 10574 10563 10553 10543 10533 10521 10509 10495 10480 10465 10450 10433 10419 10404 10389 10375 10362 10346 10335 10328 10323 10321 10322 10326 10335 10345 10359 10377 10395 10412 10428 10444
10640 10634 10629 10629 10624 10618 10614 10610 10605 10599 10591 10583 10576 10566 10557 10547 10537 10525 10512 10501 10487 10472 10457 10442 10428 10413 10400 10387 10377 10364 10350 10340 10334 10330 10330 10330 10335 10344 10356 10370 10383 10402 10419 10434
10633 10629 10622 10618 10615 10611 10609 10605 10602 10596 10589 10582 10575 10566 10557 10548 10539 10527 10517 10505 10492 10478 10463 10451 10438 10425 10412 10400 10389 10378 10367 10355 10346 10340 10337 10338 10339 10344 10352 10366 10381 10392 10407 10422
10626 10623 10617 10612 10608 10606 10603 10601 10597 10592 10587 10580 10573 10565 10556 10548 10539 10529 10519 10510 10497 10485 10472 10459 10446 10434 10423 10411 10399 10389 10381 10372 10360 10351 10346 10343 10344 10347 10353 10361 10371 10386 10399 10411
10622 10618 10613 10609 10605 10602 10599 10596 10593 10589 10583 10578 10570 10563 10555 10549 10540 10531 10521 10511 10501 10490 10478 10467 10456 10444 10431 10422 10411 10400 10392 10384 10375 10366 10357 10352 10349 10349 10353 10359 10367 10376 10387 10402
10616 10613 10610 10607 10602 10600 10597 10593 10589 10585 10581 10575 10567 10560 10554 10548 10540 10532 10523 10513 10503 10493 10484 10474 10462 10451 10441 10429 10420 10411 10402 10393 10386 10379 10371 10362 10357 10355 10355 10358 10362 10370 10378 10387
10612 10608 10606 10604 10599 10596 10593 10590 10586 10581 10577 10571 10564 10558 10552 10547 10539 10533 10524 10514 10504 10495 10486 10477 10468 10457 10447 10438 10427 10419 10410 10403 10394 10386 10382 10375 10367 10361 10358 10357 10360 10365 10369 10377
10610 10607 10605 10601 10597 10595 10591 10587 10583 10579 10574 10568 10562 10557 10551 10545 10539 10531 10524 10515 10506 10496 10487 10478 10469 10461 10453 10442 10433 10424 10414 10407 10401 10394 10386 10381 10375 10369 10363 10360 10359 10358 10363 10368
10608 10605 10603 10599 10595 10592 10589 10585 10581 10577 10572 10566 10561 10556 10550 10544 10537 10529 10521 10513 10506 10497 10488 10478 10469 10460 10453 10446 10438 10428 10419 10410 10403 10396 10389 10384 10378 10374 10369 10363 10358 10356 10357 10358
10605 10603 10600 10597 10593 10590 10586 10582 10577 10573 10568 10563 10559 10554 10548 10541 10534 10527 10518 10510 10503 10495 10487 10479 10470 10461 10451 10443 10438 10430 10422 10413 10403 10398 10391 10383 10379 10374 10369 10365 10359 10353 10351 10350
10601 10600 10596 10593 10591 10587 10582 10579 10575 10570 10565 10561 10556 10550 10544 10537 10530 10523 10515 10507 10499 10492 10485 10478 10469 10459 10451 10440 10433 10427 10420 10413 10405 10396 10389 10384 10377 10371 10366 10359 10356 10353 10348 10343
10598 10595 10591 10589 10585 10582 10578 10573 10568 10564 10560 10555 10551 10544 10539 10532 10526 10519 10512 10504 10496 10487 10480 10473 10465 10457 10449 10440 10428 10423 10416 10409 10402 10394 10387 10378 10372 10367 10361 10354 10351 10346 10343 10338
10593 10590 10586 10583 10580 10575 10572 10568 10564 10559 10555 10550 10545 10539 10532 10527 10521 10514 10507 10499 10491 10483 10474 10466 10460 10452 10445 10438 10427 10417 10410 10404 10397 10390 10381 10375 10367 10359 10354 10349 10341 10336 10331 10328